Time,TemperatureF,DewpointF,PressureIn,WindDirection,WindDirectionDegrees,WindSpeedMPH,WindSpeedGustMPH,Humidity,HourlyPrecipIn,Conditions,Clouds,dailyrainin,SolarRadiationWatts/m^2,SoftwareType,DateUTC
2013-06-13 00:14:00,54.3,52.0,29.67,WNW,295,9.0,12.0,93,0.03,,,0.01,0,weatherlink.com 1.10,2013-06-13 04:14:00,
2013-06-13 00:29:00,54.3,52.0,29.67,North,355,3.0,13.0,93,0.03,,,0.01,0,weatherlink.com 1.10,2013-06-13 04:29:00,
2013-06-13 00:44:00,53.8,52.0,29.67,WNW,286,14.0,14.0,93,0.03,,,0.02,0,weatherlink.com 1.10,2013-06-13 04:44:00,
2013-06-13 00:59:00,53.6,52.0,29.67,North,5,5.0,14.0,93,0.03,,,0.03,0,weatherlink.com 1.10,2013-06-13 04:59:00,
2013-06-13 01:14:00,53.5,52.0,29.67,West,273,6.0,15.0,93,0.04,,,0.05,0,weatherlink.com 1.10,2013-06-13 05:14:00,
2013-06-13 01:29:00,53.5,52.0,29.67,West,273,9.0,15.0,93,0.05,,,0.07,0,weatherlink.com 1.10,2013-06-13 05:29:00,
2013-06-13 01:44:00,53.5,52.0,29.68,North,9,1.0,12.0,94,0.07,,,0.09,0,weatherlink.com 1.10,2013-06-13 05:44:00,
2013-06-13 01:59:00,53.4,52.0,29.68,WNW,282,5.0,16.0,94,0.08,,,0.11,0,weatherlink.com 1.10,2013-06-13 05:59:00,
2013-06-13 02:14:00,53.4,52.0,29.68,North,350,3.0,9.0,94,0.07,,,0.12,0,weatherlink.com 1.10,2013-06-13 06:14:00,
2013-06-13 02:29:00,53.6,52.0,29.68,NW,310,2.0,12.0,94,0.06,,,0.13,0,weatherlink.com 1.10,2013-06-13 06:29:00,
2013-06-13 02:44:00,53.7,52.0,29.68,West,280,6.0,15.0,94,0.05,,,0.14,0,weatherlink.com 1.10,2013-06-13 06:44:00,
2013-06-13 02:59:00,53.5,52.0,29.68,North,360,3.0,8.0,93,0.03,,,0.14,0,weatherlink.com 1.10,2013-06-13 06:59:00,
2013-06-13 03:14:00,53.2,51.0,29.67,NNE,13,1.0,8.0,91,0.02,,,0.14,0,weatherlink.com 1.10,2013-06-13 07:14:00,
2013-06-13 03:29:00,52.9,51.0,29.68,WNW,284,1.0,5.0,92,0.01,,,0.14,0,weatherlink.com 1.10,2013-06-13 07:29:00,
2013-06-13 03:44:00,52.6,50.0,29.68,North,355,4.0,6.0,92,0.00,,,0.14,0,weatherlink.com 1.10,2013-06-13 07:44:00,
2013-06-13 03:59:00,52.7,50.0,29.68,NNW,340,1.0,6.0,90,0.00,,,0.14,0,weatherlink.com 1.10,2013-06-13 07:59:00,
2013-06-13 04:14:00,52.7,51.0,29.68,NNW,346,2.0,4.0,92,0.00,,,0.14,0,weatherlink.com 1.10,2013-06-13 08:14:00,
2013-06-13 04:30:00,52.1,50.0,29.68,WNW,288,3.0,6.0,93,0.00,,,0.14,0,weatherlink.com 1.10,2013-06-13 08:30:00,
2013-06-13 04:45:00,51.8,51.0,29.69,NW,306,1.0,6.0,95,0.00,,,0.14,0,weatherlink.com 1.10,2013-06-13 08:45:00,
2013-06-13 05:00:00,51.6,51.0,29.69,WNW,287,4.0,8.0,96,0.00,,,0.14,11,weatherlink.com 1.10,2013-06-13 09:00:00,
2013-06-13 05:15:00,51.6,51.0,29.70,West,279,5.0,9.0,96,0.00,,,0.14,11,weatherlink.com 1.10,2013-06-13 09:15:00,
2013-06-13 05:30:00,51.8,51.0,29.71,WNW,290,3.0,9.0,96,0.00,,,0.14,14,weatherlink.com 1.10,2013-06-13 09:30:00,
2013-06-13 05:45:00,52.0,51.0,29.72,NW,311,3.0,6.0,96,0.00,,,0.14,30,weatherlink.com 1.10,2013-06-13 09:45:00,
2013-06-13 06:00:00,52.2,51.0,29.72,WNW,302,5.0,7.0,96,0.00,,,0.14,35,weatherlink.com 1.10,2013-06-13 10:00:00,
2013-06-13 06:15:00,52.4,51.0,29.72,WNW,295,2.0,7.0,96,0.00,,,0.14,46,weatherlink.com 1.10,2013-06-13 10:15:00,
2013-06-13 06:30:00,53.3,52.0,29.72,WNW,294,3.0,8.0,94,0.00,,,0.14,72,weatherlink.com 1.10,2013-06-13 10:30:00,
2013-06-13 06:45:00,54.7,52.0,29.71,NW,313,6.0,11.0,89,0.00,,,0.14,127,weatherlink.com 1.10,2013-06-13 10:45:00,
2013-06-13 07:00:00,56.1,51.0,29.71,NNW,340,6.0,13.0,84,0.00,,,0.14,158,weatherlink.com 1.10,2013-06-13 11:00:00,
2013-06-13 07:15:00,56.6,52.0,29.72,ENE,61,3.0,7.0,84,0.00,,,0.14,148,weatherlink.com 1.10,2013-06-13 11:15:00,
2013-06-13 07:30:00,56.9,51.0,29.73,NNW,346,1.0,10.0,81,0.00,,,0.14,165,weatherlink.com 1.10,2013-06-13 11:30:00,
2013-06-13 07:45:00,57.6,51.0,29.73,North,360,0.0,3.0,79,0.00,,,0.14,121,weatherlink.com 1.10,2013-06-13 11:45:00,
2013-06-13 08:00:00,58.1,51.0,29.74,West,259,2.0,6.0,78,0.00,,,0.14,288,weatherlink.com 1.10,2013-06-13 12:00:00,
2013-06-13 08:15:00,59.5,52.0,29.73,West,268,0.0,7.0,76,0.00,,,0.14,680,weatherlink.com 1.10,2013-06-13 12:15:00,
2013-06-13 08:30:00,61.3,51.0,29.73,West,259,4.0,9.0,69,0.00,,,0.14,613,weatherlink.com 1.10,2013-06-13 12:30:00,
2013-06-13 08:45:00,62.0,50.0,29.72,West,281,5.0,9.0,66,0.00,,,0.14,628,weatherlink.com 1.10,2013-06-13 12:45:00,
2013-06-13 09:00:00,63.8,53.0,29.71,NNE,16,1.0,6.0,67,0.00,,,0.14,677,weatherlink.com 1.10,2013-06-13 13:00:00,
2013-06-13 09:15:00,65.6,53.0,29.71,NE,53,3.0,6.0,64,0.00,,,0.14,698,weatherlink.com 1.10,2013-06-13 13:15:00,
2013-06-13 09:30:00,65.2,52.0,29.72,WNW,282,7.0,9.0,63,0.00,,,0.14,698,weatherlink.com 1.10,2013-06-13 13:30:00,
2013-06-13 09:46:00,64.7,52.0,29.72,NW,322,0.0,7.0,63,0.00,,,0.14,694,weatherlink.com 1.10,2013-06-13 13:46:00,
2013-06-13 10:01:00,65.3,52.0,29.72,NNW,334,2.0,9.0,62,0.00,,,0.14,729,weatherlink.com 1.10,2013-06-13 14:01:00,
2013-06-13 10:16:00,66.6,53.0,29.73,NE,44,0.0,6.0,61,0.00,,,0.14,814,weatherlink.com 1.10,2013-06-13 14:16:00,
2013-06-13 10:31:00,67.6,53.0,29.73,East,84,1.0,5.0,59,0.00,,,0.14,872,weatherlink.com 1.10,2013-06-13 14:31:00,
2013-06-13 10:46:00,67.4,53.0,29.72,WNW,299,3.0,7.0,61,0.00,,,0.14,900,weatherlink.com 1.10,2013-06-13 14:46:00,
2013-06-13 11:01:00,68.4,53.0,29.73,NW,319,1.0,5.0,59,0.00,,,0.14,965,weatherlink.com 1.10,2013-06-13 15:01:00,
2013-06-13 11:16:00,69.4,55.0,29.73,ENE,67,2.0,5.0,61,0.00,,,0.14,940,weatherlink.com 1.10,2013-06-13 15:16:00,
2013-06-13 11:31:00,70.0,55.0,29.73,SSE,155,2.0,4.0,60,0.00,,,0.14,976,weatherlink.com 1.10,2013-06-13 15:31:00,
2013-06-13 11:46:00,70.4,54.0,29.73,SSE,161,1.0,7.0,57,0.00,,,0.14,1000,weatherlink.com 1.10,2013-06-13 15:46:00,
2013-06-13 12:01:00,70.7,55.0,29.72,West,261,0.0,5.0,58,0.00,,,0.14,983,weatherlink.com 1.10,2013-06-13 16:01:00,
2013-06-13 12:16:00,70.5,55.0,29.72,South,191,0.0,6.0,59,0.00,,,0.14,967,weatherlink.com 1.10,2013-06-13 16:16:00,
2013-06-13 12:31:00,72.6,55.0,29.72,NW,317,0.0,4.0,55,0.00,,,0.14,1035,weatherlink.com 1.10,2013-06-13 16:31:00,
2013-06-13 12:46:00,73.6,55.0,29.71,NE,34,2.0,5.0,52,0.00,,,0.14,900,weatherlink.com 1.10,2013-06-13 16:46:00,
2013-06-13 13:01:00,73.1,54.0,29.71,ESE,119,0.0,6.0,52,0.00,,,0.14,1014,weatherlink.com 1.10,2013-06-13 17:01:00,
2013-06-13 13:16:00,73.0,54.0,29.71,NE,36,2.0,5.0,52,0.00,,,0.14,898,weatherlink.com 1.10,2013-06-13 17:16:00,
2013-06-13 13:31:00,73.5,54.0,29.71,NNE,26,2.0,5.0,51,0.00,,,0.14,359,weatherlink.com 1.10,2013-06-13 17:31:00,
2013-06-13 13:46:00,71.1,54.0,29.71,NNE,13,1.0,4.0,55,0.00,,,0.14,287,weatherlink.com 1.10,2013-06-13 17:46:00,
2013-06-13 14:01:00,71.2,54.0,29.71,SSW,196,1.0,5.0,54,0.00,,,0.14,814,weatherlink.com 1.10,2013-06-13 18:01:00,
2013-06-13 14:16:00,69.6,54.0,29.71,ESE,113,4.0,8.0,58,0.00,,,0.14,207,weatherlink.com 1.10,2013-06-13 18:16:00,
2013-06-13 14:31:00,68.1,54.0,29.71,SW,225,2.0,5.0,61,0.00,,,0.14,169,weatherlink.com 1.10,2013-06-13 18:31:00,
2013-06-13 14:46:00,67.5,54.0,29.70,WSW,254,0.0,3.0,62,0.00,,,0.14,216,weatherlink.com 1.10,2013-06-13 18:46:00,
2013-06-13 15:01:00,69.3,54.0,29.70,SW,230,3.0,5.0,59,0.00,,,0.14,473,weatherlink.com 1.10,2013-06-13 19:01:00,
2013-06-13 15:16:00,69.7,54.0,29.69,WSW,255,3.0,9.0,57,0.00,,,0.14,594,weatherlink.com 1.10,2013-06-13 19:16:00,
2013-06-13 15:31:00,70.2,54.0,29.69,South,178,0.0,9.0,57,0.00,,,0.14,468,weatherlink.com 1.10,2013-06-13 19:31:00,
2013-06-13 15:46:00,70.1,54.0,29.69,SSW,194,2.0,5.0,56,0.00,,,0.14,350,weatherlink.com 1.10,2013-06-13 19:46:00,
2013-06-13 16:01:00,69.4,54.0,29.69,SSE,155,3.0,10.0,59,0.00,,,0.14,309,weatherlink.com 1.10,2013-06-13 20:01:00,
2013-06-13 16:16:00,68.1,53.0,29.69,SSW,207,1.0,8.0,59,0.00,,,0.14,295,weatherlink.com 1.10,2013-06-13 20:16:00,
2013-06-13 16:31:00,66.9,52.0,29.69,SSE,153,3.0,7.0,60,0.00,,,0.14,230,weatherlink.com 1.10,2013-06-13 20:31:00,
2013-06-13 16:46:00,66.1,52.0,29.68,SE,130,3.0,7.0,61,0.00,,,0.14,225,weatherlink.com 1.10,2013-06-13 20:46:00,
2013-06-13 17:01:00,65.5,51.0,29.68,SSW,201,5.0,7.0,59,0.00,,,0.14,207,weatherlink.com 1.10,2013-06-13 21:01:00,
2013-06-13 17:16:00,65.0,51.0,29.70,SSW,213,6.0,6.0,61,0.00,,,0.14,174,weatherlink.com 1.10,2013-06-13 21:16:00,
2013-06-13 17:31:00,64.3,52.0,29.70,WNW,296,0.0,5.0,65,0.00,,,0.14,121,weatherlink.com 1.10,2013-06-13 21:31:00,
2013-06-13 17:46:00,63.2,53.0,29.70,West,262,1.0,4.0,69,0.00,,,0.14,105,weatherlink.com 1.10,2013-06-13 21:46:00,
2013-06-13 18:01:00,62.5,53.0,29.70,SSW,202,0.0,8.0,70,0.00,,,0.14,102,weatherlink.com 1.10,2013-06-13 22:01:00,
2013-06-13 18:16:00,62.6,52.0,29.71,South,179,2.0,3.0,68,0.00,,,0.14,88,weatherlink.com 1.10,2013-06-13 22:16:00,
2013-06-13 18:31:00,62.1,52.0,29.71,SSE,154,2.0,4.0,69,0.00,,,0.14,74,weatherlink.com 1.10,2013-06-13 22:31:00,
2013-06-13 18:46:00,61.7,52.0,29.71,South,188,0.0,3.0,70,0.00,,,0.14,53,weatherlink.com 1.10,2013-06-13 22:46:00,
2013-06-13 19:01:00,61.3,52.0,29.71,WSW,242,0.0,2.0,72,0.00,,,0.14,51,weatherlink.com 1.10,2013-06-13 23:01:00,
2013-06-13 19:16:00,61.1,52.0,29.72,SW,220,0.0,3.0,73,0.00,,,0.14,25,weatherlink.com 1.10,2013-06-13 23:16:00,
2013-06-13 19:31:00,60.8,52.0,29.72,South,173,0.0,2.0,74,0.00,,,0.14,14,weatherlink.com 1.10,2013-06-13 23:31:00,
2013-06-13 19:46:00,60.0,53.0,29.73,South,173,0.0,0.0,77,0.00,,,0.14,9,weatherlink.com 1.10,2013-06-13 23:46:00,
2013-06-13 20:01:00,59.3,54.0,29.73,South,173,0.0,0.0,81,0.00,,,0.14,0,weatherlink.com 1.10,2013-06-14 00:01:00,
2013-06-13 20:16:00,58.4,53.0,29.73,South,173,0.0,0.0,81,0.00,,,0.14,0,weatherlink.com 1.10,2013-06-14 00:16:00,
2013-06-13 20:31:00,58.1,53.0,29.73,South,173,0.0,0.0,84,0.00,,,0.14,0,weatherlink.com 1.10,2013-06-14 00:31:00,
2013-06-13 20:46:00,57.9,53.0,29.74,South,173,0.0,0.0,83,0.00,,,0.14,0,weatherlink.com 1.10,2013-06-14 00:46:00,
2013-06-13 21:01:00,57.4,53.0,29.74,South,173,0.0,0.0,84,0.00,,,0.14,0,weatherlink.com 1.10,2013-06-14 01:01:00,
2013-06-13 21:16:00,56.9,52.0,29.75,South,173,0.0,0.0,84,0.00,,,0.14,0,weatherlink.com 1.10,2013-06-14 01:16:00,
2013-06-13 21:31:00,56.4,53.0,29.75,South,173,0.0,0.0,87,0.00,,,0.14,0,weatherlink.com 1.10,2013-06-14 01:31:00,
2013-06-13 21:46:00,56.0,53.0,29.75,South,173,0.0,0.0,89,0.00,,,0.14,0,weatherlink.com 1.10,2013-06-14 01:46:00,
2013-06-13 22:01:00,55.6,52.0,29.74,South,173,0.0,0.0,88,0.00,,,0.14,0,weatherlink.com 1.10,2013-06-14 02:01:00,
2013-06-13 22:16:00,55.4,52.0,29.73,South,173,0.0,0.0,89,0.00,,,0.14,0,weatherlink.com 1.10,2013-06-14 02:16:00,
2013-06-13 22:31:00,55.1,53.0,29.73,South,173,0.0,0.0,91,0.00,,,0.14,0,weatherlink.com 1.10,2013-06-14 02:31:00,
2013-06-13 22:46:00,54.8,52.0,29.72,South,173,0.0,0.0,91,0.00,,,0.14,0,weatherlink.com 1.10,2013-06-14 02:46:00,
2013-06-13 23:01:00,54.4,52.0,29.71,South,173,0.0,0.0,92,0.00,,,0.14,0,weatherlink.com 1.10,2013-06-14 03:01:00,
2013-06-13 23:16:00,54.1,52.0,29.71,South,173,0.0,0.0,92,0.00,,,0.14,0,weatherlink.com 1.10,2013-06-14 03:16:00,
2013-06-13 23:31:00,53.7,52.0,29.71,South,173,0.0,0.0,93,0.00,,,0.14,0,weatherlink.com 1.10,2013-06-14 03:31:00,
2013-06-13 23:46:00,53.5,52.0,29.71,South,173,0.0,0.0,94,0.00,,,0.14,0,weatherlink.com 1.10,2013-06-14 03:46:00,